This is the latest recevied weather packets stored in our database for station/object ke5jzm-1. If no packets are shown the sender has not sent any weather packets the latest 10 day(s).
| Time | Temp. | Humidity | Pressure | Rain* | Wind** | Luminosity | Snow |
|---|---|---|---|---|---|---|---|
| 1777580932 | 25.56° C | 62% | 1009.4 hPa | 0 mm | - | 107 W/m² | - |
| 1777580871 | 25.56° C | 62% | 1009.4 hPa | 0 mm | - | 111 W/m² | - |
| 1777580811 | 25.56° C | 62% | 1009.4 hPa | 0 mm | - | 100 W/m² | - |
| 1777580751 | 25.56° C | 62% | 1009.4 hPa | 0.25 mm | - | 90 W/m² | - |
| 1777580691 | 25.56° C | 62% | 1009.4 hPa | 0.51 mm | - | 76 W/m² | - |
| 1777580632 | 25.56° C | 62% | 1009.5 hPa | 0.76 mm | - | 62 W/m² | - |
| 1777580571 | 25.56° C | 62% | 1009.6 hPa | 1.02 mm | - | 64 W/m² | - |
| 1777580511 | 25.56° C | 62% | 1009.6 hPa | 1.52 mm | - | 73 W/m² | - |
| 1777580452 | 25.56° C | 62% | 1009.6 hPa | 1.78 mm | - | 75 W/m² | - |
| 1777580391 | 25.56° C | 62% | 1009.7 hPa | 1.78 mm | - | 70 W/m² | - |
| 1777580331 | 25.56° C | 62% | 1009.7 hPa | 2.03 mm | - | 105 W/m² | - |
| 1777580272 | 25.56° C | 62% | 1009.8 hPa | 2.29 mm | - | 105 W/m² | - |
| 1777580211 | 25.56° C | 62% | 1009.7 hPa | 2.54 mm | - | 131 W/m² | - |
| 1777580151 | 25.56° C | 62% | 1009.7 hPa | 2.79 mm | - | 148 W/m² | - |
| 1777580091 | 25.56° C | 62% | 1009.7 hPa | 2.79 mm | - | 140 W/m² | - |
| 1777580031 | 25.56° C | 62% | 1009.7 hPa | 3.05 mm | - | 120 W/m² | - |
| 1777579971 | 25.56° C | 62% | 1009.8 hPa | 3.3 mm | - | 108 W/m² | - |
| 1777579911 | 25.56° C | 62% | 1009.7 hPa | 3.3 mm | - | 123 W/m² | - |
| 1777579852 | 25.56° C | 62% | 1009.7 hPa | 3.3 mm | - | 174 W/m² | - |
| 1777579791 | 25.56° C | 62% | 1009.6 hPa | 3.56 mm | - | 262 W/m² | - |
| 1777579731 | 25.56° C | 62% | 1009.6 hPa | 3.56 mm | - | 306 W/m² | - |
| 1777579670 | 25.56° C | 62% | 1009.7 hPa | 3.56 mm | - | 312 W/m² | - |
| 1777579611 | 25.56° C | 62% | 1009.8 hPa | 3.56 mm | - | 306 W/m² | - |
| 1777579551 | 25.56° C | 62% | 1009.8 hPa | 3.56 mm | - | 291 W/m² | - |
| 1777579493 | 25.56° C | 62% | 1009.8 hPa | 3.56 mm | - | 276 W/m² | - |
* Rain latest hour (hover to see other rain measurements)
** Current wind speed in m/s (hover to see current wind gust speed)